Aeroporto :
LOGIN :

Iscrizione | Disclaimer

   EN    FR    IT 

 










Sommario :    VFR   VFR Marginale   IFR   IFR Intensivo   IFR Molto Intensivo
Visibilità : 
Base nubi : 
>= 8 km
>= 3000ft
5 / 8 km
1000 / 3000 ft
1500m / 5 km
500 / 1000 ft
800 / 1500m
200 / 500 ft
< 800m
< 200 ft
Simboli :   Temporali  Nebbia  Neve Forte  Precipitazioni Forti  Vento > 20 kt
SIGMETs :   Varie  Temporali  Ghiacco  Turbolenza  Onda orograficha  Ceneri Vulcaniche






- Altitudine del aeroporto : 782 ft
- Codice IATA : BGY


LIME - Orio al Serio International - Bergamo

ULTIMO METAR :
  • 300250Z 35004KT 310V020 9999 BKN080 15/10 Q1019 NOSIG

METARs OBSOLETI :
  • 300220Z 35005KT 320V030 9999 BKN080 15/09 Q1019 NOSIG
  • 300150Z 36003KT 320V020 9999 BKN100 15/10 Q1019 NOSIG
  • 300120Z 36005KT 320V030 9999 BKN100 15/10 Q1019 NOSIG
  • 300050Z 36005KT 320V020 9999 BKN100 15/09 Q1019 NOSIG

TAF TAF LIME
Valido dal 30 a 00 ore il 31 a 00 ore UTC


292300Z 3000/3024 VRB05KT 9999 SCT060
TEMPO 3017/3024 SHRA



MetMap, La meteo Aeronautica in un colpo d'occhio ! - Copyright ORBIFLY Dicembre 2007 - Disclaimer

ORBIFLY MET'MAP TEAM :

Programmazione e sviluppo : Alexandra Zaïnal
Concezione : Baudouin d'Aumeries
Aiuto per la programmazione : Marc-Olivier Méhu
Supporto tecnico e logistico : Manuel Goepfert
Aiuto per la traduzione : Arnaldo La Scala

Contatto : metmap@orbifly.com




FONTI E CREDITI :

   NOAA